Location: Gymnasium_Grossenhain
(51.3000°N, 13.5950°E)
Time: 06:57:36
(UTC+02:00)

ARIANE 6 FM1 Upper Stage - Visible Passes

Search period start: 14 October 2024 00:00
Search period end: 24 October 2024 00:00
Orbit: 563 x 595 km, 62.0° (Epoch: 13 October)

Date Brightness Start Highest point End Pass type
(mag) Time Alt. Az. Time Alt. Az. Time Alt. Az.
14 Oct 4.4 18:49:26 10° NW 18:52:51 22° NNE 18:56:18 10° ENE visible
14 Oct 3.1 20:28:47 10° NW 20:33:01 50° NNE 20:33:01 50° NNE visible
14 Oct 5.6 22:08:19 10° WNW 22:09:18 16° WNW 22:09:18 16° WNW visible
15 Oct 4.2 18:53:49 10° NW 18:57:24 25° NNE 19:00:58 10° ENE visible
15 Oct 2.8 20:33:04 10° NW 20:37:15 67° NNE 20:37:15 67° NNE visible
15 Oct 5.8 22:12:55 10° WNW 22:13:33 13° WNW 22:13:33 13° WNW visible
16 Oct 3.9 18:58:07 10° NW 19:01:55 28° NNE 19:05:15 12° E visible
16 Oct 2.7 20:37:21 10° NW 20:41:32 82° WNW 20:41:32 82° WNW visible
16 Oct 5.9 22:17:46 10° W 22:17:50 10° W 22:17:50 10° W visible
17 Oct 3.6 19:02:23 10° NW 19:06:23 34° NNE 19:09:35 14° E visible
17 Oct 3.1 20:41:40 10° NW 20:45:53 61° SW 20:45:53 61° SW visible
18 Oct 3.3 19:06:38 10° NW 19:10:47 43° NNE 19:13:59 16° E visible
18 Oct 3.7 20:46:02 10° WNW 20:50:09 42° SW 20:50:17 42° SW visible
19 Oct 2.9 19:10:51 10° NW 19:15:09 57° NE 19:18:29 16° ESE visible
19 Oct 4.3 20:50:29 10° WNW 20:54:16 29° WSW 20:54:47 28° SW visible
20 Oct 2.7 19:15:04 10° NW 19:19:26 78° NE 19:23:06 14° SE visible
20 Oct 4.9 20:55:07 10° WNW 20:58:18 20° WSW 20:59:25 18° SW visible
21 Oct 2.9 19:19:18 10° NW 19:23:39 75° SW 19:27:52 11° SE visible
21 Oct 5.5 21:00:08 10° W 21:02:17 14° WSW 21:04:11 11° SW visible
22 Oct 3.5 19:23:35 10° NW 19:27:49 52° SW 19:32:04 10° SSE visible
23 Oct 4.3 19:27:56 10° WNW 19:31:55 36° SW 19:35:54 10° SSE visible
